Year,Month,Day,Hour,Minute,Value (Times are PST for temperature in C)
2015,07,08,00,00,19.00
2015,07,08,00,01,19.10
2015,07,08,00,02,19.00
2015,07,08,00,03,19.00
2015,07,08,00,04,19.00
2015,07,08,00,05,19.00
2015,07,08,00,06,18.90
2015,07,08,00,07,18.90
2015,07,08,00,08,18.90
2015,07,08,00,09,18.90
2015,07,08,00,10,18.80
2015,07,08,00,11,18.80
2015,07,08,00,12,18.80
2015,07,08,00,13,18.80
2015,07,08,00,14,18.80
2015,07,08,00,15,18.80
2015,07,08,00,16,18.80
2015,07,08,00,17,18.80
2015,07,08,00,18,18.80
2015,07,08,00,19,18.70
2015,07,08,00,20,18.70
2015,07,08,00,21,18.70
2015,07,08,00,22,18.70
2015,07,08,00,23,18.70
2015,07,08,00,24,18.60
2015,07,08,00,25,18.60
2015,07,08,00,26,18.60
2015,07,08,00,27,18.50
2015,07,08,00,28,18.50
2015,07,08,00,29,18.40
2015,07,08,00,30,18.30
2015,07,08,00,31,18.20
2015,07,08,00,32,18.10
2015,07,08,00,33,18.10
2015,07,08,00,34,18.00
2015,07,08,00,35,18.00
2015,07,08,00,36,17.90
2015,07,08,00,37,17.90
2015,07,08,00,38,17.90
2015,07,08,00,39,18.00
2015,07,08,00,40,18.00
2015,07,08,00,41,18.00
2015,07,08,00,42,18.10
2015,07,08,00,43,18.10
2015,07,08,00,44,18.10
2015,07,08,00,45,18.10
2015,07,08,00,46,18.00
2015,07,08,00,47,18.00
2015,07,08,00,48,18.00
2015,07,08,00,49,18.00
2015,07,08,00,50,18.00
2015,07,08,00,51,18.00
2015,07,08,00,52,18.00
2015,07,08,00,53,18.00
2015,07,08,00,54,18.00
2015,07,08,00,55,18.00
2015,07,08,00,56,18.10
2015,07,08,00,57,18.10
2015,07,08,00,58,18.10
2015,07,08,00,59,18.00
2015,07,08,01,00,18.00
2015,07,08,01,01,18.00
2015,07,08,01,02,18.00
2015,07,08,01,03,17.90
2015,07,08,01,04,17.90
2015,07,08,01,05,17.90
2015,07,08,01,06,17.90
2015,07,08,01,07,17.90
2015,07,08,01,08,17.90
2015,07,08,01,09,17.90
2015,07,08,01,10,17.90
2015,07,08,01,11,17.90
2015,07,08,01,12,17.90
2015,07,08,01,13,17.80
2015,07,08,01,14,17.80
2015,07,08,01,15,17.80
2015,07,08,01,16,17.80
2015,07,08,01,17,17.80
2015,07,08,01,18,17.70
2015,07,08,01,19,17.70
2015,07,08,01,20,17.70
2015,07,08,01,21,17.70
2015,07,08,01,22,17.60
2015,07,08,01,23,17.60
2015,07,08,01,24,17.60
2015,07,08,01,25,17.60
2015,07,08,01,26,17.60
2015,07,08,01,27,17.60
2015,07,08,01,28,17.60
2015,07,08,01,29,17.60
2015,07,08,01,30,17.60
2015,07,08,01,31,17.50
2015,07,08,01,32,17.50
2015,07,08,01,33,17.40
2015,07,08,01,34,17.40
2015,07,08,01,35,17.30
2015,07,08,01,36,17.20
2015,07,08,01,37,17.20
2015,07,08,01,38,17.10
2015,07,08,01,39,17.10
2015,07,08,01,40,17.20
2015,07,08,01,41,17.30
2015,07,08,01,42,17.30
2015,07,08,01,43,17.30
2015,07,08,01,44,17.30
2015,07,08,01,45,17.40
2015,07,08,01,46,17.50
2015,07,08,01,47,17.60
2015,07,08,01,48,17.70
2015,07,08,01,49,17.80
2015,07,08,01,50,17.90
2015,07,08,01,51,17.90
2015,07,08,01,52,18.00
2015,07,08,01,53,18.00
2015,07,08,01,54,18.10
2015,07,08,01,55,18.10
2015,07,08,01,56,18.10
2015,07,08,01,57,18.10
2015,07,08,01,58,18.10
2015,07,08,01,59,18.10
2015,07,08,02,00,18.10
2015,07,08,02,01,18.10
2015,07,08,02,02,18.00
2015,07,08,02,03,18.00
2015,07,08,02,04,18.00
2015,07,08,02,05,18.00
2015,07,08,02,06,17.90
2015,07,08,02,07,17.90
2015,07,08,02,08,17.80
2015,07,08,02,09,17.80
2015,07,08,02,10,17.80
2015,07,08,02,11,17.80
2015,07,08,02,12,17.80
2015,07,08,02,13,17.80
2015,07,08,02,14,17.80
2015,07,08,02,15,17.80
2015,07,08,02,16,17.80
2015,07,08,02,17,17.80
2015,07,08,02,18,17.70
2015,07,08,02,19,17.70
2015,07,08,02,20,17.70
2015,07,08,02,21,17.60
2015,07,08,02,22,17.60
2015,07,08,02,23,17.60
2015,07,08,02,24,17.50
2015,07,08,02,25,17.50
2015,07,08,02,26,17.40
2015,07,08,02,27,17.40
2015,07,08,02,28,17.40
2015,07,08,02,29,17.30
2015,07,08,02,30,17.30
2015,07,08,02,31,17.30
2015,07,08,02,32,17.20
2015,07,08,02,33,17.20
2015,07,08,02,34,17.20
2015,07,08,02,35,17.20
2015,07,08,02,36,17.10
2015,07,08,02,37,17.10
2015,07,08,02,38,17.10
2015,07,08,02,39,17.10
2015,07,08,02,40,17.00
2015,07,08,02,41,17.00
2015,07,08,02,42,17.00
2015,07,08,02,43,16.90
2015,07,08,02,44,16.90
2015,07,08,02,45,16.90
2015,07,08,02,46,16.90
2015,07,08,02,47,16.90
2015,07,08,02,48,16.90
2015,07,08,02,49,16.90
2015,07,08,02,50,16.90
2015,07,08,02,51,16.90
2015,07,08,02,52,16.90
2015,07,08,02,53,16.90
2015,07,08,02,54,16.90
2015,07,08,02,55,16.90
2015,07,08,02,56,16.90
2015,07,08,02,57,16.90
2015,07,08,02,58,16.90
2015,07,08,02,59,16.90
2015,07,08,03,00,16.90
2015,07,08,03,01,17.00
2015,07,08,03,02,17.00
2015,07,08,03,03,17.10
2015,07,08,03,04,17.10
2015,07,08,03,05,17.10
2015,07,08,03,06,17.10
2015,07,08,03,07,17.10
2015,07,08,03,08,17.10
2015,07,08,03,09,17.10
2015,07,08,03,10,17.10
2015,07,08,03,11,17.10
2015,07,08,03,12,17.10
2015,07,08,03,13,17.10
2015,07,08,03,14,17.10
2015,07,08,03,15,17.10
2015,07,08,03,16,17.10
2015,07,08,03,17,17.10
2015,07,08,03,18,17.10
2015,07,08,03,19,17.00
2015,07,08,03,20,16.90
2015,07,08,03,21,16.80
2015,07,08,03,22,16.70
2015,07,08,03,23,16.60
2015,07,08,03,24,16.60
2015,07,08,03,25,16.60
2015,07,08,03,26,16.60
2015,07,08,03,27,16.50
2015,07,08,03,28,16.50
2015,07,08,03,29,16.40
2015,07,08,03,30,16.40
2015,07,08,03,31,16.50
2015,07,08,03,32,16.50
2015,07,08,03,33,16.40
2015,07,08,03,34,16.40
2015,07,08,03,35,16.40
2015,07,08,03,36,16.30
2015,07,08,03,37,16.30
2015,07,08,03,38,16.20
2015,07,08,03,39,16.20
2015,07,08,03,40,16.20
2015,07,08,03,41,16.20
2015,07,08,03,42,16.10
2015,07,08,03,43,16.10
2015,07,08,03,44,16.10
2015,07,08,03,45,16.00
2015,07,08,03,46,16.00
2015,07,08,03,47,15.90
2015,07,08,03,48,15.90
2015,07,08,03,49,15.90
2015,07,08,03,50,15.80
2015,07,08,03,51,15.80
2015,07,08,03,52,15.80
2015,07,08,03,53,15.80
2015,07,08,03,54,15.70
2015,07,08,03,55,15.70
2015,07,08,03,56,15.70
2015,07,08,03,57,15.70
2015,07,08,03,58,15.70
2015,07,08,03,59,15.70
2015,07,08,04,00,15.70
2015,07,08,04,01,15.70
2015,07,08,04,02,15.60
2015,07,08,04,03,15.60
2015,07,08,05,02,14.60
2015,07,08,05,03,14.60
2015,07,08,05,04,14.50
2015,07,08,05,05,14.50
2015,07,08,05,06,14.50
2015,07,08,05,07,14.50
2015,07,08,05,08,14.50
2015,07,08,05,09,14.40
2015,07,08,05,10,14.40
2015,07,08,05,11,14.40
2015,07,08,05,12,14.40
2015,07,08,05,13,14.40
2015,07,08,05,14,14.30
2015,07,08,05,15,14.30
2015,07,08,05,16,14.30
2015,07,08,05,17,14.30
2015,07,08,05,18,14.30
2015,07,08,05,19,14.20
2015,07,08,05,20,14.20
2015,07,08,05,21,14.20
2015,07,08,05,22,14.20
2015,07,08,05,23,14.20
2015,07,08,05,24,14.10
2015,07,08,05,25,14.10
2015,07,08,05,26,14.10
2015,07,08,05,27,14.10
2015,07,08,05,28,14.10
2015,07,08,05,29,14.10
2015,07,08,05,30,14.10
2015,07,08,05,31,14.10
2015,07,08,05,32,14.10
2015,07,08,05,33,14.10
2015,07,08,05,34,14.10
2015,07,08,05,35,14.10
2015,07,08,05,36,14.10
2015,07,08,05,37,14.10
2015,07,08,05,38,14.10
2015,07,08,05,39,14.00
2015,07,08,05,40,14.00
2015,07,08,05,41,14.00
2015,07,08,05,42,14.10
2015,07,08,05,43,14.10
2015,07,08,05,44,14.10
2015,07,08,05,45,14.00
2015,07,08,05,46,14.00
2015,07,08,05,47,14.00
2015,07,08,05,48,14.00
2015,07,08,05,49,13.90
2015,07,08,05,50,13.90
2015,07,08,05,51,13.90
2015,07,08,05,52,13.90
2015,07,08,05,53,13.90
2015,07,08,05,54,13.90
2015,07,08,05,55,13.90
2015,07,08,05,56,14.00
2015,07,08,05,57,14.00
2015,07,08,05,58,14.00
2015,07,08,05,59,14.00
2015,07,08,06,00,14.00
2015,07,08,06,01,14.00
2015,07,08,06,02,14.00
2015,07,08,06,03,14.00
2015,07,08,06,04,14.00
2015,07,08,06,05,14.00
2015,07,08,06,06,14.10
2015,07,08,06,07,14.10
2015,07,08,06,08,14.10
2015,07,08,06,09,14.10
2015,07,08,06,10,14.10
2015,07,08,06,11,14.10
2015,07,08,06,12,14.10
2015,07,08,06,13,14.10
2015,07,08,06,14,14.20
2015,07,08,06,15,14.20
2015,07,08,06,16,14.20
2015,07,08,06,17,14.20
2015,07,08,06,18,14.20
2015,07,08,06,19,14.20
2015,07,08,06,20,14.30
2015,07,08,06,21,14.30
2015,07,08,06,22,14.30
2015,07,08,06,23,14.30
2015,07,08,06,24,14.30
2015,07,08,06,25,14.30
2015,07,08,06,26,14.30
2015,07,08,06,27,14.30
2015,07,08,06,28,14.30
2015,07,08,06,29,14.30
2015,07,08,06,30,14.30
2015,07,08,06,31,14.30
2015,07,08,06,32,14.30
2015,07,08,06,33,14.30
2015,07,08,06,34,14.30
2015,07,08,06,35,14.30
2015,07,08,06,36,14.30
2015,07,08,06,37,14.30
2015,07,08,06,38,14.30
2015,07,08,06,39,14.30
2015,07,08,06,40,14.40
2015,07,08,06,41,14.40
2015,07,08,06,42,14.50
2015,07,08,06,43,14.50
2015,07,08,06,44,14.60
2015,07,08,06,45,14.60
2015,07,08,06,46,14.70
2015,07,08,06,47,14.70
2015,07,08,06,48,14.80
2015,07,08,06,49,14.80
2015,07,08,06,50,14.80
2015,07,08,06,51,14.90
2015,07,08,06,52,14.90
2015,07,08,06,53,14.90
2015,07,08,06,54,15.00
2015,07,08,06,55,15.00
2015,07,08,06,56,15.10
2015,07,08,06,57,15.10
2015,07,08,06,58,15.10
2015,07,08,06,59,15.20
2015,07,08,07,00,15.20
2015,07,08,07,01,15.30
2015,07,08,07,02,15.30
2015,07,08,07,03,15.40
2015,07,08,07,04,15.40
2015,07,08,07,05,15.40
2015,07,08,07,06,15.50
2015,07,08,07,07,15.50
2015,07,08,07,08,15.60
2015,07,08,07,09,15.60
2015,07,08,07,10,15.60
2015,07,08,07,11,15.70
2015,07,08,07,12,15.70
2015,07,08,07,13,15.70
2015,07,08,07,14,15.80
2015,07,08,07,15,15.80
2015,07,08,07,16,15.90
2015,07,08,07,17,15.90
2015,07,08,07,18,16.00
2015,07,08,07,19,16.00
2015,07,08,07,20,16.10
2015,07,08,07,21,16.20
2015,07,08,07,22,16.20
2015,07,08,07,23,16.20
2015,07,08,07,24,16.30
2015,07,08,07,25,16.30
2015,07,08,07,26,16.30
2015,07,08,07,27,16.30
2015,07,08,07,28,16.30
2015,07,08,07,29,16.30
2015,07,08,07,30,16.40
2015,07,08,07,31,16.40
2015,07,08,07,32,16.40
2015,07,08,07,33,16.40
2015,07,08,07,34,16.50
2015,07,08,07,35,16.50
2015,07,08,07,36,16.50
2015,07,08,07,37,16.60
2015,07,08,07,38,16.70
2015,07,08,07,39,16.70
2015,07,08,07,40,16.70
2015,07,08,07,41,16.80
2015,07,08,07,42,16.80
2015,07,08,07,43,16.80
2015,07,08,07,44,16.80
2015,07,08,07,45,16.80
2015,07,08,07,46,16.80
2015,07,08,07,47,16.80
2015,07,08,07,48,16.80
2015,07,08,07,49,16.90
2015,07,08,07,50,16.90
2015,07,08,07,51,16.90
2015,07,08,07,52,17.00
2015,07,08,07,53,17.10
2015,07,08,07,54,17.10
2015,07,08,07,55,17.20
2015,07,08,07,56,17.20
2015,07,08,07,57,17.30
2015,07,08,07,58,17.30
2015,07,08,07,59,17.30
2015,07,08,08,00,17.40
2015,07,08,08,01,17.40
2015,07,08,08,02,17.50
2015,07,08,08,03,17.50
2015,07,08,08,04,17.60
2015,07,08,08,05,17.60
2015,07,08,08,06,17.70
2015,07,08,08,07,17.80
2015,07,08,08,08,17.80
2015,07,08,08,09,17.90
2015,07,08,08,10,18.00
2015,07,08,08,11,18.00
2015,07,08,08,12,18.10
2015,07,08,08,13,18.10
2015,07,08,08,14,18.20
2015,07,08,08,15,18.20
2015,07,08,08,16,18.30
2015,07,08,08,17,18.30
2015,07,08,08,18,18.40
2015,07,08,08,19,18.50
2015,07,08,08,20,18.60
2015,07,08,08,21,18.60
2015,07,08,08,22,18.70
2015,07,08,08,23,18.70
2015,07,08,08,24,18.70
2015,07,08,08,25,18.70
2015,07,08,08,26,18.70
2015,07,08,08,27,18.70
2015,07,08,08,28,18.60
2015,07,08,08,29,18.60
2015,07,08,08,30,18.60
2015,07,08,08,31,18.60
2015,07,08,08,32,18.60
2015,07,08,08,33,18.60
2015,07,08,08,34,18.70
2015,07,08,08,35,18.70
2015,07,08,08,36,18.80
2015,07,08,08,37,18.80
2015,07,08,08,38,18.80
2015,07,08,08,39,18.90
2015,07,08,08,40,18.90
2015,07,08,08,41,19.00
2015,07,08,08,42,19.10
2015,07,08,08,43,19.20
2015,07,08,08,44,19.30
2015,07,08,08,45,19.30
2015,07,08,08,46,19.30
2015,07,08,08,47,19.40
2015,07,08,08,48,19.40
2015,07,08,08,49,19.40
2015,07,08,08,50,19.40
2015,07,08,08,51,19.40
2015,07,08,08,52,19.40
2015,07,08,08,53,19.50
2015,07,08,08,54,19.60
2015,07,08,08,55,19.70
2015,07,08,08,56,19.70
2015,07,08,08,57,19.80
2015,07,08,08,58,19.80
2015,07,08,08,59,19.80
2015,07,08,09,00,19.90
2015,07,08,09,01,19.90
2015,07,08,09,02,19.90
2015,07,08,09,03,20.00
2015,07,08,09,04,20.00
2015,07,08,09,05,20.10
2015,07,08,09,06,20.10
2015,07,08,09,07,20.10
2015,07,08,09,08,20.10
2015,07,08,09,09,20.10
2015,07,08,09,10,20.20
2015,07,08,09,11,20.30
2015,07,08,09,12,20.30
2015,07,08,09,13,20.30
2015,07,08,09,14,20.30
2015,07,08,09,15,20.40
2015,07,08,09,16,20.40
2015,07,08,09,17,20.50
2015,07,08,09,18,20.50
2015,07,08,09,19,20.50
2015,07,08,09,20,20.50
2015,07,08,09,21,20.50
2015,07,08,09,22,20.60
2015,07,08,09,23,20.60
2015,07,08,09,24,20.60
2015,07,08,09,25,20.50
2015,07,08,09,26,20.50
2015,07,08,09,27,20.50
2015,07,08,09,28,20.50
2015,07,08,09,29,20.50
2015,07,08,09,30,20.60
2015,07,08,09,31,20.60
2015,07,08,09,32,20.60
2015,07,08,09,33,20.60
2015,07,08,09,34,20.60
2015,07,08,09,35,20.50
2015,07,08,09,36,20.40
2015,07,08,09,37,20.40
2015,07,08,09,38,20.30
2015,07,08,09,39,20.30
2015,07,08,09,40,20.40
2015,07,08,09,41,20.50
2015,07,08,09,42,20.50
2015,07,08,09,43,20.60
2015,07,08,09,44,20.70
2015,07,08,09,45,20.70
2015,07,08,09,46,20.70
2015,07,08,09,47,20.70
2015,07,08,09,48,20.60
2015,07,08,09,49,20.60
2015,07,08,09,50,20.60
2015,07,08,09,51,20.60
2015,07,08,09,52,20.70
2015,07,08,09,53,20.70
2015,07,08,09,54,20.70
2015,07,08,09,55,20.80
2015,07,08,09,56,20.80
2015,07,08,09,57,20.80
2015,07,08,09,58,21.00
2015,07,08,09,59,21.10
2015,07,08,10,00,21.20
2015,07,08,10,01,21.30
2015,07,08,10,02,21.30
2015,07,08,10,03,21.40
2015,07,08,10,04,21.50
2015,07,08,10,05,21.60
2015,07,08,10,06,21.70
2015,07,08,10,07,21.70
2015,07,08,10,08,21.70
2015,07,08,10,09,21.70
2015,07,08,10,10,21.70
2015,07,08,10,11,21.60
2015,07,08,10,12,21.60
2015,07,08,10,13,21.60
2015,07,08,10,14,21.60
2015,07,08,10,15,21.70
2015,07,08,10,16,21.80
2015,07,08,10,17,22.00
2015,07,08,10,18,22.10
2015,07,08,10,19,22.00
2015,07,08,10,20,22.10
2015,07,08,10,21,22.10
2015,07,08,10,22,22.10
2015,07,08,10,23,22.00
2015,07,08,10,24,22.00
2015,07,08,10,25,22.00
2015,07,08,10,26,22.10
2015,07,08,10,27,22.20
2015,07,08,10,28,22.30
2015,07,08,10,29,22.30
2015,07,08,10,30,22.40
2015,07,08,10,31,22.50
2015,07,08,10,32,22.60
2015,07,08,10,33,22.60
2015,07,08,10,34,22.60
2015,07,08,10,35,22.50
2015,07,08,10,36,22.50
2015,07,08,10,37,22.40
2015,07,08,10,38,22.50
2015,07,08,10,39,22.50
2015,07,08,10,40,22.60
2015,07,08,10,41,22.60
2015,07,08,10,42,22.60
2015,07,08,10,43,22.60
2015,07,08,10,44,22.60
2015,07,08,10,45,22.70
2015,07,08,10,46,22.80
2015,07,08,10,47,23.00
2015,07,08,10,48,23.00
2015,07,08,10,49,23.10
2015,07,08,10,50,23.20
2015,07,08,10,51,23.10
2015,07,08,10,52,23.10
2015,07,08,10,53,23.00
2015,07,08,10,54,23.00
2015,07,08,10,55,22.90
2015,07,08,10,56,22.80
2015,07,08,10,57,22.70
2015,07,08,10,58,22.60
2015,07,08,10,59,22.40
2015,07,08,11,00,22.40
2015,07,08,11,01,22.30
2015,07,08,11,02,22.30
2015,07,08,11,03,22.40
2015,07,08,11,04,22.50
2015,07,08,11,05,22.60
2015,07,08,11,06,22.70
2015,07,08,11,07,22.70
2015,07,08,11,08,22.60
2015,07,08,11,09,22.60
2015,07,08,11,10,22.50
2015,07,08,11,11,22.50
2015,07,08,11,12,22.40
2015,07,08,11,13,22.30
2015,07,08,11,14,22.20
2015,07,08,11,15,22.20
2015,07,08,11,16,22.20
2015,07,08,11,17,22.20
2015,07,08,11,18,22.10
2015,07,08,11,19,22.10
2015,07,08,11,20,22.20
2015,07,08,11,21,22.20
2015,07,08,11,22,22.20
2015,07,08,11,23,22.10
2015,07,08,11,24,22.10
2015,07,08,11,25,22.10
2015,07,08,11,26,22.10
2015,07,08,11,27,22.10
2015,07,08,11,28,22.00
2015,07,08,11,29,22.00
2015,07,08,11,30,22.00
2015,07,08,11,31,21.90
2015,07,08,11,32,21.90
2015,07,08,11,33,21.90
2015,07,08,11,34,22.00
2015,07,08,11,35,21.90
2015,07,08,11,36,21.90
2015,07,08,11,37,21.90
2015,07,08,11,38,21.90
2015,07,08,11,39,21.90
2015,07,08,11,40,21.90
2015,07,08,11,41,22.00
2015,07,08,11,42,22.10
2015,07,08,11,43,22.20
2015,07,08,11,44,22.20
2015,07,08,11,45,22.30
2015,07,08,11,46,22.30
2015,07,08,11,47,22.30
2015,07,08,11,48,22.40
2015,07,08,11,49,22.40
2015,07,08,11,50,22.50
2015,07,08,11,51,22.50
2015,07,08,11,52,22.60
2015,07,08,11,53,22.60
2015,07,08,11,54,22.60
2015,07,08,11,55,22.70
2015,07,08,11,56,22.70
2015,07,08,11,57,22.70
2015,07,08,11,58,22.70
2015,07,08,11,59,22.80
2015,07,08,12,00,22.90
2015,07,08,12,01,22.90
2015,07,08,12,02,22.90
2015,07,08,12,03,23.00
2015,07,08,12,04,23.00
2015,07,08,12,05,23.00
2015,07,08,12,06,23.00
2015,07,08,12,07,23.00
2015,07,08,12,08,23.00
2015,07,08,12,09,23.10
2015,07,08,12,10,23.10
2015,07,08,12,11,23.20
2015,07,08,12,12,23.20
2015,07,08,12,13,23.20
2015,07,08,12,14,23.20
2015,07,08,12,15,23.30
2015,07,08,12,16,23.30
2015,07,08,12,17,23.30
2015,07,08,12,18,23.30
2015,07,08,12,19,23.30
2015,07,08,12,20,23.30
2015,07,08,12,21,23.30
2015,07,08,12,22,23.30
2015,07,08,12,23,23.20
2015,07,08,12,24,23.20
2015,07,08,12,25,23.20
2015,07,08,12,26,23.20
2015,07,08,12,27,23.30
2015,07,08,12,28,23.30
2015,07,08,12,29,23.30
2015,07,08,12,30,23.20
2015,07,08,12,31,23.10
2015,07,08,12,32,23.10
2015,07,08,12,33,23.00
2015,07,08,12,34,23.00
2015,07,08,12,35,23.00
2015,07,08,12,36,23.10
2015,07,08,12,37,23.10
2015,07,08,12,38,23.20
2015,07,08,12,39,23.40
2015,07,08,12,40,23.40
2015,07,08,12,41,23.50
2015,07,08,12,42,23.60
2015,07,08,12,43,23.60
2015,07,08,12,44,23.60
2015,07,08,12,45,23.60
2015,07,08,12,46,23.70
2015,07,08,12,47,23.80
2015,07,08,12,48,23.80
2015,07,08,12,49,23.80
2015,07,08,12,50,23.80
2015,07,08,12,51,23.90
2015,07,08,12,52,24.00
2015,07,08,12,53,24.00
2015,07,08,12,54,24.10
2015,07,08,12,55,24.10
2015,07,08,12,56,24.10
2015,07,08,12,57,24.20
2015,07,08,12,58,24.30
2015,07,08,12,59,24.20
2015,07,08,13,00,24.20
2015,07,08,13,01,24.20
2015,07,08,13,02,24.20
2015,07,08,13,03,24.20
2015,07,08,13,04,24.30
2015,07,08,13,05,24.30
2015,07,08,13,06,24.30
2015,07,08,13,07,24.40
2015,07,08,13,08,24.40
2015,07,08,13,09,24.40
2015,07,08,13,10,24.40
2015,07,08,13,11,24.40
2015,07,08,13,12,24.40
2015,07,08,13,13,24.40
2015,07,08,13,14,24.50
2015,07,08,13,15,24.50
2015,07,08,13,16,24.50
2015,07,08,13,17,24.50
2015,07,08,13,18,24.50
2015,07,08,13,19,24.40
2015,07,08,13,20,24.30
2015,07,08,13,21,24.20
2015,07,08,13,22,24.20
2015,07,08,13,23,24.20
2015,07,08,13,24,24.20
2015,07,08,13,25,24.20
2015,07,08,13,26,24.20
2015,07,08,13,27,24.20
2015,07,08,13,28,24.30
2015,07,08,13,29,24.30
2015,07,08,13,30,24.30
2015,07,08,13,31,24.30
2015,07,08,13,32,24.30
2015,07,08,13,33,24.20
2015,07,08,13,34,24.30
2015,07,08,13,35,24.30
2015,07,08,13,36,24.40
2015,07,08,13,37,24.40
2015,07,08,13,38,24.40
2015,07,08,13,39,24.40
2015,07,08,13,40,24.40
2015,07,08,13,41,24.40
2015,07,08,13,42,24.40
2015,07,08,13,43,24.30
2015,07,08,13,44,24.20
2015,07,08,13,45,24.20
2015,07,08,13,46,24.20
2015,07,08,13,47,24.30
2015,07,08,13,48,24.30
2015,07,08,13,49,24.40
2015,07,08,13,50,24.40
2015,07,08,13,51,24.50
2015,07,08,13,52,24.60
2015,07,08,13,53,24.70
2015,07,08,13,54,24.70
2015,07,08,13,55,24.70
2015,07,08,13,56,24.70
2015,07,08,13,57,24.70
2015,07,08,13,58,24.60
2015,07,08,13,59,24.50
2015,07,08,14,00,24.50
2015,07,08,14,01,24.40
2015,07,08,14,02,24.40
2015,07,08,14,03,24.50
2015,07,08,14,04,24.50
2015,07,08,14,05,24.50
2015,07,08,14,06,24.60
2015,07,08,14,07,24.60
2015,07,08,14,08,24.60
2015,07,08,14,09,24.70
2015,07,08,14,10,24.70
2015,07,08,14,11,24.80
2015,07,08,14,12,24.80
2015,07,08,14,13,24.80
2015,07,08,14,14,24.80
2015,07,08,14,15,24.80
2015,07,08,14,16,24.90
2015,07,08,14,17,24.90
2015,07,08,14,18,24.90
2015,07,08,14,19,24.90
2015,07,08,14,20,24.90
2015,07,08,14,21,24.90
2015,07,08,14,22,24.90
2015,07,08,14,23,24.90
2015,07,08,14,24,25.00
2015,07,08,14,25,25.00
2015,07,08,14,26,25.10
2015,07,08,14,27,25.20
2015,07,08,14,28,25.20
2015,07,08,14,29,25.30
2015,07,08,14,30,25.40
2015,07,08,14,31,25.40
2015,07,08,14,32,25.40
2015,07,08,14,33,25.40
2015,07,08,14,34,25.30
2015,07,08,14,35,25.30
2015,07,08,14,36,25.30
2015,07,08,14,37,25.30
2015,07,08,14,38,25.30
2015,07,08,14,39,25.30
2015,07,08,14,40,25.40
2015,07,08,14,41,25.40
2015,07,08,14,42,25.40
2015,07,08,14,43,25.40
2015,07,08,14,44,25.40
2015,07,08,14,45,25.50
2015,07,08,14,46,25.50
2015,07,08,14,47,25.50
2015,07,08,14,48,25.50
2015,07,08,14,49,25.40
2015,07,08,14,50,25.40
2015,07,08,14,51,25.40
2015,07,08,14,52,25.40
2015,07,08,14,53,25.40
2015,07,08,14,54,25.50
2015,07,08,14,55,25.50
2015,07,08,14,56,25.50
2015,07,08,14,57,25.50
2015,07,08,14,58,25.50
2015,07,08,14,59,25.60
2015,07,08,15,00,25.60
2015,07,08,15,01,25.60
2015,07,08,15,02,25.60
2015,07,08,15,03,25.60
2015,07,08,15,04,25.50
2015,07,08,15,05,25.50
2015,07,08,15,06,25.50
2015,07,08,15,07,25.60
2015,07,08,15,08,25.70
2015,07,08,15,09,25.80
2015,07,08,15,10,25.90
2015,07,08,15,11,26.00
2015,07,08,15,12,26.00
2015,07,08,15,13,26.10
2015,07,08,15,14,26.10
2015,07,08,15,15,26.20
2015,07,08,15,16,26.20
2015,07,08,15,17,26.20
2015,07,08,15,18,26.20
2015,07,08,15,19,26.20
2015,07,08,15,20,26.20
2015,07,08,15,21,26.20
2015,07,08,15,22,26.30
2015,07,08,15,23,26.40
2015,07,08,15,24,26.40
2015,07,08,15,25,26.50
2015,07,08,15,26,26.60
2015,07,08,15,27,26.60
2015,07,08,15,28,26.60
2015,07,08,15,29,26.60
2015,07,08,15,30,26.60
2015,07,08,15,31,26.60
2015,07,08,15,32,26.50
2015,07,08,15,33,26.30
2015,07,08,15,34,26.30
2015,07,08,15,35,26.20
2015,07,08,15,36,26.20
2015,07,08,15,37,26.20
2015,07,08,15,38,26.10
2015,07,08,15,39,26.10
2015,07,08,15,40,26.10
2015,07,08,15,41,26.10
2015,07,08,15,42,26.20
2015,07,08,15,43,26.20
2015,07,08,15,44,26.30
2015,07,08,15,45,26.30
2015,07,08,15,46,26.40
2015,07,08,15,47,26.40
2015,07,08,15,48,26.40
2015,07,08,15,49,26.50
2015,07,08,15,50,26.60
2015,07,08,15,51,26.60
2015,07,08,15,52,26.50
2015,07,08,15,53,26.50
2015,07,08,15,54,26.40
2015,07,08,15,55,26.40
2015,07,08,15,56,26.40
2015,07,08,15,57,26.40
2015,07,08,15,58,26.40
2015,07,08,15,59,26.40
2015,07,08,16,00,26.40
2015,07,08,16,01,26.40
2015,07,08,16,02,26.50
2015,07,08,16,03,26.60
2015,07,08,16,04,26.70
2015,07,08,16,05,26.70
2015,07,08,16,06,26.80
2015,07,08,16,07,26.80
2015,07,08,16,08,26.90
2015,07,08,16,09,26.90
2015,07,08,16,10,26.90
2015,07,08,16,11,26.90
2015,07,08,16,12,26.90
2015,07,08,16,13,26.90
2015,07,08,16,14,26.90
2015,07,08,16,15,26.90
2015,07,08,16,16,27.00
2015,07,08,16,17,27.00
2015,07,08,16,18,26.90
2015,07,08,16,19,26.90
2015,07,08,16,20,26.80
2015,07,08,16,21,26.70
2015,07,08,16,22,26.70
2015,07,08,16,23,26.70
2015,07,08,16,24,26.80
2015,07,08,16,25,26.80
2015,07,08,16,26,26.90
2015,07,08,16,27,27.00
2015,07,08,16,28,27.00
2015,07,08,16,29,27.10
2015,07,08,16,30,27.00
2015,07,08,16,31,27.00
2015,07,08,16,32,26.90
2015,07,08,16,33,26.80
2015,07,08,16,34,26.80
2015,07,08,16,35,26.80
2015,07,08,16,36,26.80
2015,07,08,16,37,26.80
2015,07,08,16,38,26.80
2015,07,08,16,39,26.80
2015,07,08,16,40,26.80
2015,07,08,16,41,26.80
2015,07,08,16,42,26.80
2015,07,08,16,43,26.80
2015,07,08,16,44,26.80
2015,07,08,16,45,26.80
2015,07,08,16,46,26.90
2015,07,08,16,47,26.90
2015,07,08,16,48,26.90
2015,07,08,16,49,26.80
2015,07,08,16,50,26.80
2015,07,08,16,51,26.60
2015,07,08,16,52,26.60
2015,07,08,16,53,26.50
2015,07,08,16,54,26.40
2015,07,08,16,55,26.40
2015,07,08,16,56,26.40
2015,07,08,16,57,26.40
2015,07,08,16,58,26.40
2015,07,08,16,59,26.50
2015,07,08,17,00,26.50
2015,07,08,17,01,26.50
2015,07,08,17,02,26.50
2015,07,08,17,03,26.60
2015,07,08,17,04,26.60
2015,07,08,17,05,26.60
2015,07,08,17,06,26.70
2015,07,08,17,07,26.80
2015,07,08,17,08,26.80
2015,07,08,17,09,26.90
2015,07,08,17,10,26.90
2015,07,08,17,11,26.90
2015,07,08,17,12,26.90
2015,07,08,17,13,27.00
2015,07,08,17,14,27.00
2015,07,08,17,15,27.10
2015,07,08,17,16,27.10
2015,07,08,17,17,27.20
2015,07,08,17,18,27.20
2015,07,08,17,19,27.30
2015,07,08,17,20,27.30
2015,07,08,17,21,27.30
2015,07,08,17,22,27.40
2015,07,08,17,23,27.40
2015,07,08,17,24,27.50
2015,07,08,17,25,27.60
2015,07,08,17,26,27.60
2015,07,08,17,27,27.70
2015,07,08,17,28,27.70
2015,07,08,17,29,27.80
2015,07,08,17,30,27.80
2015,07,08,17,31,27.80
2015,07,08,17,32,27.80
2015,07,08,17,33,27.80
2015,07,08,17,34,27.80
2015,07,08,17,35,27.80
2015,07,08,17,36,27.80
2015,07,08,17,37,27.80
2015,07,08,17,38,27.80
2015,07,08,17,39,27.80
2015,07,08,17,40,27.80
2015,07,08,17,41,27.80
2015,07,08,17,42,27.80
2015,07,08,17,43,27.80
2015,07,08,17,44,27.90
2015,07,08,17,45,27.90
2015,07,08,17,46,27.90
2015,07,08,17,47,28.00
2015,07,08,17,48,28.00
2015,07,08,17,49,28.00
2015,07,08,17,50,28.00
2015,07,08,17,51,28.10
2015,07,08,17,52,28.10
2015,07,08,17,53,28.20
2015,07,08,17,54,28.20
2015,07,08,17,55,28.20
2015,07,08,17,56,28.20
2015,07,08,17,57,28.20
2015,07,08,17,58,28.20
2015,07,08,17,59,28.20
2015,07,08,18,00,28.20
2015,07,08,18,01,28.20
2015,07,08,18,02,28.20
2015,07,08,18,03,28.20
2015,07,08,18,04,28.20
2015,07,08,18,05,28.30
2015,07,08,18,06,28.30
2015,07,08,18,07,28.30
2015,07,08,18,08,28.40
2015,07,08,18,09,28.40
2015,07,08,18,10,28.50
2015,07,08,18,11,28.60
2015,07,08,18,12,28.60
2015,07,08,18,13,28.70
2015,07,08,18,14,28.80
2015,07,08,18,15,28.80
2015,07,08,18,16,28.80
2015,07,08,18,17,28.90